This is the latest recevied weather packets stored in our database for station/object KD2ZLA. If no packets are shown the sender has not sent any weather packets the latest 10 day(s).
| Time | Temp. | Humidity | Pressure | Rain* | Wind** | Luminosity | Snow |
|---|---|---|---|---|---|---|---|
| 1777827751 | 10° C | 40% | 1009.6 hPa | 0 mm | - | 293 W/m² | - |
| 1777827448 | 10° C | 44% | 1009.9 hPa | 0 mm | - | 371 W/m² | - |
| 1777827146 | 10° C | 39% | 1009.9 hPa | 0 mm | - | 411 W/m² | - |
| 1777826841 | 9.44° C | 42% | 1009.9 hPa | 0 mm | - | 293 W/m² | - |
| 1777826540 | 10° C | 40% | 1010 hPa | 0 mm | - | 378 W/m² | - |
| 1777826235 | 10° C | 42% | 1010 hPa | 0 mm | - | 319 W/m² | - |
| 1777825933 | 10° C | 42% | 1010 hPa | 0 mm | - | 259 W/m² | - |
| 1777825630 | 10° C | 41% | 1010 hPa | 0 mm | - | 252 W/m² | - |
| 1777825328 | 10° C | 41% | 1010.1 hPa | 0 mm | - | 369 W/m² | - |
| 1777825024 | 10° C | 42% | 1010.1 hPa | 0 mm | - | 419 W/m² | - |
| 1777824720 | 10° C | 40% | 1010.3 hPa | 0 mm | - | 405 W/m² | - |
| 1777824418 | 10.56° C | 37% | 1010.3 hPa | 0 mm | - | 467 W/m² | - |
| 1777824113 | 10.56° C | 41% | 1010.2 hPa | 0 mm | - | 504 W/m² | - |
| 1777823809 | 10° C | 40% | 1010.4 hPa | 0 mm | - | 578 W/m² | - |
| 1777823507 | 9.44° C | 42% | 1010.5 hPa | 0 mm | - | 181 W/m² | - |
| 1777823204 | 10.56° C | 42% | 1010.5 hPa | 0 mm | - | 1021 W/m² | - |
| 1777822902 | 10° C | 41% | 1010.7 hPa | 0 mm | - | 940 W/m² | - |
| 1777822600 | 10° C | 42% | 1010.4 hPa | 0 mm | - | 1008 W/m² | - |
| 1777822297 | 9.44° C | 42% | 1010.7 hPa | 0 mm | - | 898 W/m² | - |
| 1777821994 | 10° C | 42% | 1010.7 hPa | 0 mm | - | 835 W/m² | - |
| 1777821692 | 10° C | 41% | 1011 hPa | 0 mm | - | 895 W/m² | - |
| 1777821390 | 9.44° C | 42% | 1010.9 hPa | 0 mm | - | 345 W/m² | - |
| 1777821086 | 9.44° C | 41% | 1011 hPa | 0 mm | - | 863 W/m² | - |
| 1777820783 | 9.44° C | 43% | 1011.1 hPa | 0 mm | - | 834 W/m² | - |
| 1777820479 | 9.44° C | 43% | 1011.1 hPa | 0 mm | - | 819 W/m² | - |
* Rain latest hour (hover to see other rain measurements)
** Current wind speed in m/s (hover to see current wind gust speed)